www.pogodaiklimat.ru
ПОГОДА на Капо Беллависто
Время
(UTC), дата
16 30.05
17 30.05
18 30.05
20 30.05
19 30.05
21 30.05
22 30.05
23 30.05
00 31.05
01 31.05
03 31.05
04 31.05
05 31.05
06 31.05
07 31.05
08 31.05
09 31.05
10 31.05
11 31.05
12 31.05
13 31.05
14 31.05
15 31.05
16 31.05
17 31.05
18 31.05
19 31.05
20 31.05
21 31.05
22 31.05
23 31.05
00 1.06
01 1.06
02 1.06
03 1.06
04 1.06
05 1.06
06 1.06
07 1.06
08 1.06
09 1.06
10 1.06
11 1.06
12 1.06
13 1.06
14 1.06
15 1.06
16 1.06
17 1.06
18 1.06
19 1.06
20 1.06
21 1.06
22 1.06
23 1.06
00 2.06
01 2.06
02 2.06
03 2.06
04 2.06
05 2.06
06 2.06
07 2.06
08 2.06
09 2.06
10 2.06
11 2.06
12 2.06
13 2.06
14 2.06
15 2.06
16 2.06
17 2.06
18 2.06
19 2.06
20 2.06
21 2.06
22 2.06
23 2.06
00 3.06
01 3.06
02 3.06
03 3.06
04 3.06
05 3.06
06 3.06
07 3.06
08 3.06
09 3.06
10 3.06
11 3.06
12 3.06
13 3.06
14 3.06
15 3.06
16 3.06
17 3.06
18 3.06
19 3.06
20 3.06
21 3.06
22 3.06
23 3.06
00 4.06
01 4.06
02 4.06
03 4.06
04 4.06
05 4.06
06 4.06
07 4.06
08 4.06
09 4.06
10 4.06
11 4.06
12 4.06
13 4.06
14 4.06
15 4.06
16 4.06
17 4.06
18 4.06
19 4.06
20 4.06
21 4.06
22 4.06
23 4.06
00 5.06
01 5.06
02 5.06
03 5.06
04 5.06
05 5.06
06 5.06
07 5.06
08 5.06
09 5.06
10 5.06
11 5.06
12 5.06
13 5.06
14 5.06
15 5.06
16 5.06
17 5.06
18 5.06
19 5.06
20 5.06
21 5.06
22 5.06
23 5.06
00 6.06
01 6.06
02 6.06
03 6.06
04 6.06
05 6.06
06 6.06
07 6.06
08 6.06
09 6.06
10 6.06
11 6.06
12 6.06
13 6.06
14 6.06
15 6.06
16 6.06
Ветер
(напр.,м/с)
Видим. Явления Облачность Т
(С)
Тd
(С)
f
(%)
Тe
(С)
Тes
(С)
Комфортность P
(гПа)
Po
(гПа)
Тmin
(С)
Tmax
(С)
R
(мм)
R24
(мм)
S
(см)
В 8 25 км 8/8 750 м
[Cu med, cong]
+17.8 +11.1 65 +17 +17 1013.5 995.9
В 7 20 км 8/8 750 м
[Cu med, cong]
+17.2 +11.9 71 +16 +16 1013.5 995.9
СВ 7 20 км 8/8 750 м
[Cu med, cong]
+17.0 +12.1 73 +16 +16 1013.7 996.1 +20.4
СВ 6 20 км 5/5 750 м
[Cu med, cong]
+16.0 +11.8 76 +15 +15 1014.0 996.3
В 6 20 км 8/8 750 м
[Cu med, cong]
+16.4 +12.0 75 +15 +15 1013.8 996.1
СВ 7 20 км 4/4 750 м
[Cu med, cong]
+15.8 +12.0 78 +14 +14 1014.7 997.0
С 5 20 км 4/4 750 м
[Cu med, cong]
+15.4 +11.6 78 +14 +14 1014.8 997.0
С 5 20 км 3/3 750 м
[Cu med, cong]
+15.4 +11.6 78 +14 +14 1015.0 997.2
С 3 20 км 3/3 750 м
[Cu med, cong]
+15.5 +12.8 84 +15 +15 1015.0 997.2
СЗ 4 20 км 3/3 750 м
[Cu med, cong]
+14.6 +12.3 86 +13 +13 1015.1 997.2
СЗ 6 30 км ясно +14.2 +11.7 85 +12 +12 1015.1 997.2
СЗ 6 30 км 3/3 750 м
[Cu med, cong]
+13.8 +10.8 82 +12 +12 1015.1 997.2
СЗ 5 30 км 3/3 750 м
[Cu med, cong]
+13.2 +10.2 82 +11 +11 1015.3 997.4
СЗ 4 20 км ясно +14.4 +9.8 74 +13 +15 1015.1 997.2 +13.2
СЗ 2 30 км 1/1 600 м
[Cu med, cong]
+16.0 +9.2 64 +16 +22 1015.1 997.3
В 3 30 км ясно +21.0 +9.0 46 +23 +32 комфорт 1015.0 997.5
В 4 20 км ясно +22.4 +7.8 39 +23 +33 комфорт 1014.9 997.5
ЮВ 5 30 км ясно +24.2 +8.6 37 +25 +34 комфорт 1015.3 998.0
ЮВ 5 30 км 1/1 900 м
[Cu hum]
+24.6 +9.6 39 +25 +35 комфорт 1015.2 998.0
ЮВ 4 20 км 1/1 1200 м
[Cu hum]
+25.0 +10.2 39 +26 +38 жарко 1015.3 998.1
ЮВ 3 30 км 1/1 1200 м
[Cu hum]
+25.4 +9.9 38 +26 +39 жарко 1015.2 998.0
ЮВ 3 30 км 1/1 1200 м
[Cu med, cong]
+25.0 +10.2 39 +26 +37 жарко 1015.3 998.0
ЮВ 4 20 км 1/1 1200 м
[Cu med, cong]
+23.2 +11.1 46 +25 +31 комфорт 1015.1 997.8
Ю 3 30 км 1/1 1200 м
[Cu med, cong]
+21.8 +11.3 51 +24 +28 комфорт 1014.6 997.2
Ю 3 30 км 1/1 1200 м
[Cu med, cong]
+21.8 +11.7 53 +24 +26 комфорт 1014.4 997.0
Ю 4 20 км 1/1 1200 м
[Cu med, cong]
+21.6 +11.4 52 +24 +24 комфорт 1014.3 996.9 +25.4
ЮЗ 4 25 км 4/4 1200 м
[Cu med, cong]
+19.6 +12.8 65 +21 +21 комфорт 1014.6 997.0
ЮЗ 4 20 км 4/4 1200 м
[Cu med, cong]
+18.2 +13.4 74 +18 +18 1015.3 997.7
ЮЗ 5 20 км 4/4 1200 м
[Cu med, cong]
+18.0 +13.5 75 +18 +18 1015.8 998.1
СЗ 5 20 км 1/0
[Ac trans]
+17.4 +11.4 68 +17 +17 1015.8 998.1
З 3 20 км ясно +17.2 +10.4 64 +17 +17 1015.8 998.1
ЮЗ 3 20 км ясно +17.4 +10.6 64 +17 +17 1015.8 998.1
СЗ 1 20 км ясно +17.0 +12.0 72 +18 +18 1015.7 997.9
С 2 20 км ясно +17.2 +10.4 64 +18 +18 1015.3 997.6
С 3 20 км ясно +18.8 +8.7 52 +19 +19 1015.2 997.6
СЗ 4 25 км ясно +16.8 +16.8 100 +16 +16 1015.0 997.2
С 4 30 км ясно +16.2 +10.0 67 +16 +16 1015.0 997.2
СВ 4 20 км ясно +18.6 +12.4 67 +19 +21 1015.5 997.9 +16.2
В 3 30 км ясно +20.2 +13.5 65 +23 +28 комфорт 1015.5 998.0
В 6 30 км ясно +23.6 +14.3 56 +26 +30 жарко 1016.1 998.8
В 9 20 км ясно +21.4 +12.3 56 +24 +25 комфорт 1016.3 998.8
В 9 30 км 5/1 1200 м
[Cu hum Ci fib]
+22.0 +16.7 72 +26 +28 душно 1016.3 998.9
В 7 30 км 5/1 1200 м
[Cu hum Ci fib]
+22.0 +15.8 68 +26 +30 душно 1016.3 998.9
В 8 20 км 5/1 1200 м
[Cu hum Ci fib]
+23.0 +15.6 63 +27 +30 душно 1016.3 998.9
В 5 30 км 6/0
[Ci fib]
+23.8 +12.8 50 +26 +34 жарко 1016.4 999.0
В 5 30 км ясно +23.2 +16.5 66 +28 +36 душно 1016.1 998.8
В 5 20 км 4/0 2000 м
[Ac trans]
+22.6 +16.4 68 +27 +31 душно 1015.8 998.4
В 6 30 км 4/0
[Ac trans]
+22.6 +16.4 68 +27 +29 душно 1015.4 998.1
В 4 30 км 4/1 1200 м
[Cu hum Ac trans]
+22.0 +16.7 72 +26 +27 душно 1015.4 998.0
В 4 20 км 4/1 1200 м
[Cu hum Ci fib]
+21.0 +16.4 75 +25 +25 комфорт 1015.4 997.9 +23.6
В 1 20 км 3/1 1200 м
[Cu hum]
+19.8 +17.0 84 +23 +23 комфорт 1014.8 997.3
ЮЗ 3 20 км ясно +18.8 +16.0 84 +20 +20 1015.6 998.0
СЗ 4 20 км ясно +18.8 +17.8 94 +20 +20 1016.3 998.7
СЗ 5 20 км ясно +18.4 +17.4 94 +19 +19 1016.3 998.7
СЗ 5 20 км ясно +17.0 +16.0 94 +16 +16 1016.5 998.8
В 4 20 км ясно +11.6 +10.0 90 +9 +9 1016.3 998.3
ЮВ 2 20 км ясно +17.0 +15.5 91 +17 +17 1015.7 998.0
З 1 20 км ясно +16.6 +14.8 89 +17 +17 1015.7 998.0
СЗ 5 20 км ясно +16.0 +12.5 80 +15 +15 1015.6 997.9
СЗ 6 20 км ясно +15.8 +10.8 72 +15 +15 1015.0 997.3
СЗ 5 20 км ясно +16.0 +9.9 67 +15 +15 1015.3 997.5
СЗ 3 20 км ясно +17.0 +10.4 65 +17 +19 1015.3 997.6 +15.8
ЮЗ 1 30 км 6 баллов +19.0 +10.0 56 +21 +24 комфорт 1015.2 997.6
СВ 2 30 км 6/0
[Ci sp]
+22.6 +8.1 39 +24 +33 комфорт 1015.1 997.7
ЮВ 3 20 км 6/1 1200 м
[Cu med, cong Ci sp]
+24.6 +11.7 44 +26 +36 жарко 1015.0 997.7
ЮВ 2 30 км 6/1 1200 м
[Cu med, cong Ci sp]
+25.6 +11.4 41 +27 +42 жарко 1014.9 997.7
Ю 2 30 км 8/1 1200 м
[Cu med, cong Ci sp]
+26.6 +11.5 39 +28 +43 жарко 1014.5 997.4
В 2 20 км 9/4 1050 м
[Cu Sc Ci sp]
+26.6 +13.2 44 +29 +38 жарко 1014.2 997.1
Ю 5 25 км 10/5 900 м
[Cu Sc Ac und Ci sp]
+24.0 +12.9 50 +26 +28 жарко 1014.0 996.7
ЮЗ 7 25 км 10/5 900 м
[Cu Sc Ac und Ci sp]
+20.6 +13.6 64 +23 +24 комфорт 1013.8 996.4
ЮЗ 4 20 км 10/5 900 м
[Cu Sc Ac und Ci sp]
+19.0 +13.6 71 +20 +22 1013.5 996.0
ЮЗ 3 25 км 10/4 900 м
[Cu Sc Ac As]
+19.0 +13.6 71 +20 +21 1013.5 995.9
СЗ 4 25 км слаб. дождь 10/5 900 м
[Cu Sc Ac As]
+19.0 +13.6 71 +20 +20 1013.5 995.9
СЗ 5 20 км в посл. час дождь 10/5 900 м
[Cu Sc Ac As]
+19.0 +15.3 79 +20 +20 1013.3 995.7 +27.8 0.0
З 5 30 км 9/4 1050 м
[Sc Ac As]
+18.8 +11.2 61 +19 +19 1012.4 994.9
С 5 30 км 5/0
[Ac trans]
+19.0 +14.5 75 +20 +20 1012.5 995.0
СЗ 5 30 км ясно +18.6 +12.0 65 +19 +19 1012.6 995.1
СЗ 6 30 км ясно +17.0 +11.3 69 +16 +16 1012.8 995.2
СЗ 6 30 км ясно +17.0 +9.8 63 +16 +16 1012.7 995.1
СЗ 6 30 км ясно +17.2 +9.6 61 +16 +16 1012.6 995.0
СЗ 6 30 км ясно +17.2 +9.2 59 +16 +16 1012.3 994.7
СЗ 4 30 км ясно +17.0 +7.7 54 +17 +17 1011.7 994.1
З 3 30 км ясно +17.0 +7.7 54 +17 +17 1011.7 994.1
СЗ 6 30 км ясно +16.4 +6.5 52 +15 +15 1011.8 994.1
СЗ 6 30 км ясно +17.0 +6.4 50 +16 +16 1011.7 994.1
СЗ 5 20 км ясно +17.2 +6.2 48 +17 +18 1011.7 994.1 +16.2
В 1 30 км ясно +20.0 +5.8 39 +22 +29 комфорт 1011.5 994.1
ЮВ 3 30 км ясно +24.2 +13.1 50 +26 +36 жарко 1011.5 994.3
Ю 3 20 км ясно +25.0 +11.2 42 +26 +39 жарко 1011.4 994.2
ЮВ 3 30 км ясно +27.0 +13.4 43 +29 +44 жарко 1011.3 994.2
Ю 2 30 км ясно +28.0 +15.0 45 +31 +51 опасность
солнечного
удара
1011.2 994.2
Ю 3 20 км ясно +28.4 +13.5 40 +30 +48 жарко 1010.9 994.0
Ю 3 30 км ясно +26.2 +13.7 46 +28 +44 жарко 1010.7 993.6
ЮВ 2 30 км ясно +25.2 +16.1 57 +29 +42 душно 1010.4 993.3
ЮВ 3 20 км ясно +25.0 +15.3 55 +28 +36 жарко 1010.0 992.9
Ю 6 30 км ясно +25.2 +15.5 55 +28 +30 жарко 1009.4 992.3
Ю 7 30 км ясно +24.0 +18.6 72 +29 +29 душно 1003.6 986.5
ЮЗ 8 20 км ясно +21.4 +18.8 85 +26 +26 душно 1008.5 991.2 +28.6
ЮЗ 9 25 км ясно +20.0 +19.2 95 +23 +23 комфорт 1008.6 991.2
ЮЗ 7 20 км ясно +19.6 +19.3 98 +22 +22 комфорт 1008.7 991.2
ЮЗ 5 20 км ясно +19.0 +19.0 100 +20 +20 1008.4 990.9
ЮЗ 5 20 км ясно +18.8 +18.8 100 +20 +20 1008.0 990.6
ЮЗ 4 20 км ясно +18.4 +18.4 100 +19 +19 1007.8 990.3
Ю 3 20 км ясно +18.2 +18.2 100 +19 +19 1007.4 989.9
ЮЗ 3 20 км ясно +17.8 +17.8 100 +18 +18 1007.1 989.6
ЮЗ 3 20 км ясно +17.6 +17.6 100 +18 +18 1006.7 989.2
ЮЗ 2 20 км ясно +18.4 +18.4 100 +20 +20 1006.4 988.9
Ю 2 20 км ясно +17.2 +17.2 100 +18 +18 1005.0 987.5
ЮЗ 5 30 км ясно +17.2 +13.7 80 +17 +17 1006.1 988.5
ЮЗ 6 20 км ясно +18.2 +14.7 80 +18 +19 1005.4 988.0 +17.2
Ю 7 30 км ясно +19.6 +17.0 85 +21 +23 комфорт 1005.3 987.9
Ю 6 30 км 3/3 600 м
[Cu med, cong]
+21.0 +17.4 80 +25 +28 комфорт 1005.2 987.9
ЮЗ 6 20 км 3/3 600 м
[Cu med, cong]
+22.8 +18.4 76 +28 +32 душно 1004.8 987.6
В 4 30 км 3/3 600 м
[Cu med, cong]
+23.6 +18.0 71 +28 +36 душно 1004.1 986.9
ЮВ 6 30 км 1/1 600 м
[Cu med, cong]
+24.2 +19.0 73 +29 +37 душно 1003.2 986.1
С 6 20 км 3/3 900 м
[Cu med, cong]
+24.0 +19.1 74 +29 +34 душно 1003.9 986.8
Ю 9 25 км 3/1 600 м
[Cu med, cong Ac trans]
+23.2 +19.2 78 +30 +31 очень
душно
1002.0 984.9
Ю 11 30 км 1/1 900 м
[Cu med, cong Ac trans]
+24.0 +19.4 75 +29 +29 душно 1001.4 984.3
Ю 11 20 км 1/1 1050 м
[Cu med, cong Ac trans]
+23.4 +19.9 81 +30 +30 очень
душно
1000.2 983.2
ЮЗ 7 30 км 1/0
[Ac trans]
+24.0 +15.2 58 +27 +29 жарко 999.2 982.2
З 9 30 км ясно +29.2 +7.3 25 +28 +29 жарко 998.9 982.2
З 11 20 км ясно +27.6 +10.5 34 +28 +28 жарко 999.0 982.2 +29.2
З 9 25 км 1/0
[Ac trans]
+25.2 +13.0 47 +27 +27 жарко 999.1 982.2
З 6 20 км 1/0
[Ac trans]
+24.0 +13.3 51 +26 +26 жарко 999.6 982.6
ЮЗ 7 20 км ясно +22.6 +15.6 65 +27 +27 душно 999.9 982.8
ЮЗ 7 20 км 3/1 1050 м
[Cu med, cong Ci fib]
+21.8 +17.3 76 +26 +26 душно 1000.4 983.2
ЮЗ 10 20 км 6/3 1050 м
[Cu med, cong Ac trans Ci fib]
+21.2 +17.0 77 +25 +25 комфорт 1000.6 983.4
ЮЗ 9 20 км 9/5 1050 м
[Cu med, cong Ac trans Ci fib]
+21.2 +16.0 72 +25 +25 комфорт 1000.0 982.9
З 8 20 км 8/5 1050 м
[Cu med, cong Ac trans]
+20.8 +18.2 85 +24 +24 комфорт 1001.1 983.9
З 9 20 км зарница 9/6 900 м
[Cb cap Ac trans]
+20.4 +11.6 57 +22 +22 комфорт 1001.0 983.8
ЮЗ 9 20 км 9/5 1050 м
[Cu med, cong Ac trans]
+20.2 +13.6 66 +22 +22 комфорт 1000.5 983.2
З 8 25 км 10/5 1200 м
[Cu med, cong Ac As]
+20.2 +10.9 55 +21 +21 комфорт 1000.6 983.3
ЮЗ 7 30 км 9/4 1200 м
[Cu med, cong Ac As]
+19.4 +12.6 65 +20 +20 1001.1 983.8
ЮЗ 5 20 км 8/5 1200 м
[Cu med, cong Ac As]
+19.0 +12.2 65 +20 +20 1001.1 983.8 +19.0
СЗ 3 30 км 10/6 1200 м
[Cu med, cong Ac As]
+20.2 +10.5 54 +22 +23 комфорт 1001.4 984.2
СЗ 5 30 км 8/5 1200 м
[Cu hum Ac trans]
+20.6 +10.4 52 +22 +24 комфорт 1002.2 984.9
СЗ 5 20 км 5/5 1200 м
[Cu hum]
+22.6 -0.1 22 +22 +26 комфорт 1003.0 985.8
ЮВ 3 20 км 8/8 1200 м
[Cu hum]
+24.8 +10.3 40 +26 +29 жарко 1002.1 985.1
ЮВ 3 20 км 6/6 1200 м
[Cu hum]
+24.0 +8.4 37 +25 +31 комфорт 1002.6 985.5
СЗ 12 20 км 5/5 1200 м
[Cu hum]
+24.8 +7.9 34 +25 +25 комфорт 1003.1 986.0
СЗ 14 30 км 5/5 1200 м
[Cu hum]
+25.0 +1.8 22 +24 +24 комфорт 1002.9 985.8
СЗ 13 30 км 4/4 1200 м
[Cu hum]
+24.4 +0.7 21 +23 +23 комфорт 1003.1 986.0
СЗ 13 20 км 4/4 1200 м
[Cu hum]
+24.4 +3.1 25 +24 +24 комфорт 1003.2 986.1
СЗ 10 30 км 4/4 1200 м
[Cu hum]
+24.4 +4.7 28 +24 +24 комфорт 1003.1 986.0
СЗ 6 30 км 3/3 1200 м
[Cu hum]
+23.6 +5.9 32 +24 +24 комфорт 1003.4 986.2
СЗ 6 20 км 3/3 1200 м
[Cu hum]
+21.4 +4.5 33 +22 +22 комфорт 1004.3 987.0 +25.2
С 4 20 км ясно +20.0 +5.3 38 +21 +21 комфорт 1004.5 987.1
С 7 20 км ясно +19.8 +7.5 45 +20 +20 1004.7 987.3
С 3 20 км ясно +18.8 +6.6 45 +19 +19 1005.6 988.2
Ю 2 20 км ясно +19.0 +6.8 45 +20 +20 1006.4 989.0
ЮВ 4 20 км ясно +18.8 +9.0 53 +19 +19 1006.4 989.0
ЮВ 2 20 км ясно +18.0 +11.3 65 +19 +19 1007.3 989.8
Ю 2 20 км ясно +18.2 +9.0 55 +19 +19 1007.5 990.0
ЮВ 4 20 км ясно +19.0 +9.5 54 +20 +20 1007.5 990.1
Ю 3 20 км ясно +18.0 +12.2 69 +18 +18 1007.6 990.1
В 3 20 км ясно +18.0 +10.6 62 +18 +18 1007.7 990.2
В 2 30 км ясно +19.0 +11.1 60 +20 +21 1007.4 990.0
Ю 2 20 км ясно +21.4 +12.8 58 +24 +27 комфорт 1007.5 990.2 +17.8
ЮЗ 4 30 км ясно +20.6 +13.3 63 +23 +28 комфорт 1008.3 990.9
ЮВ 3 30 км ясно +23.0 +13.6 55 +26 +36 жарко 1008.3 991.0
СЗ 3 20 км ясно +25.0 +16.0 57 +28 +41 жарко 1008.1 991.0
С 2 30 км ясно +28.0 +15.0 45 +31 +51 опасность
солнечного
удара
1008.6 991.7
ЮВ 3 30 км ясно +29.6 +16.3 45 +33 +51 опасность
солнечного
удара
1008.8 992.0
ЮВ 4 20 км ясно +29.2 +16.5 46 +33 +47 очень
душно
1008.9 992.0
ЮВ 4 30 км 1/1 1200 м
[Cu hum]
+28.8 +17.4 50 +33 +45 очень
душно
1008.9 992.0
ЮВ 4 30 км 3/1 1200 м
[Cu hum Ci fib]
+27.0 +18.0 58 +32 +40 очень
душно
1008.8 991.8
ЮВ 4 20 км 1/1 1200 м
[Cu hum]
+26.0 +18.5 63 +31 +37 очень
душно
1008.5 991.4
ЮВ 3 30 км 1/1 1200 м
[Cu hum]
+25.6 +18.0 63 +30 +35 душно 1008.1 991.0
Местоположение метеостанции Капо Беллависто (Италия): широта 39.93 долгота 9.72 высота над уровнем моря 150 м.
В архиве по умолчанию представлена погода на Капо Беллависто за последнюю неделю. Архивные данные за месяц целиком и за предыдущие месяцы, начиная с января 2011 года, Вы можете получить, выбрав интересующий диапазон дат из раскрывающегося списка и нажав кнопку "Найти!".
*Определитесь, кто Вы:
Внимание! Время в таблицах - всемирное. Для получения местного времени необходимо прибавить поправку, которая равна 1 ч.
Смотрите также архив погоды в соседних городах и на ближайших метеорологических станциях:
Партнеры нашего сайта:      
Пояснения к столбцам:
  • Ветер - указаны скорость ветра в м/с - средняя за 10 мин, порывы в срок и между сроками (в фигурных скобках) и направление, откуда дует ветер: С - северный,
  • СВ - северо-восточный, В - восточный, ЮВ - юго-восточный, Ю - южный, ЮЗ - юго-западный, З - западный, СЗ - северо-западный.
  • Видимость - горизонтальная дальность видимости в метрах или километрах. При видимости от 1 до 10 км при отсутствии осадков обычно наблюдается дымка, при ухудшении видимости до 1 км и менее - туман. В сухую погоду видимость может ухудшаться дымом, пылью или мглою.
  • Явления - указаны атмосферные явления, наблюдавшиеся в срок или в последний час перед сроком; фигурными скобками обозначены явления, наблюдавшиеся между сроками (за 1-3 часа до срока); квадратными скобками обозначены град или гололедные отложения с указанием их диаметра в мм.
  • Облачность - указаны через наклонную черту общая и нижняя облачность в баллах и высота нижней границы облаков в метрах; квадратными скобками обозначены формы облаков: Ci - перистые, Cs - перисто-слоистые, Cc - перисто-кучевые, Ac - высококучевые, As - высокослоистые, Sc - слоисто-кучевые, Ns - слоисто-дождевые, Cu - кучевые, Cb - кучево-дождевые. Подробнее классификацию облаков см. в Атласе облаков (PDF).
  • T - Температура воздуха - температура, измеренная на высоте 2 м над землей.
  • Td - Температура точки росы - температура, при понижении до которой содержащийся в воздухе водяной пар достигнет насыщения.
  • f - Относительная влажность воздуха - влажноcть воздуха, измеренная на высоте 2 м над землей.
  • Te - Эффективная температура - температура, которую ощущает одетый по сезону человек в тени. Характеристика душности погоды. При расчете учитывается влияние влажности воздуха и скорости ветра на теплоощущения человека.
  • Tes - Эффективная температура на солнце - температура, которую ощущает человек, с поправкой на солнечный нагрев. Характеристика знойности погоды. Зависит от высоты солнца над горизонтом, облачности и скорости ветра. Ночью, в пасмурную погоду, а также при ветре 12 м/с и более поправка равна нулю.
  • P - Атмосферное давление - приведенное к уровню моря атмосферное давление.
  • Po - Атмосферное давление - измеренное на уровне метеостанции атмосферное давление.
  • Tmin - Минимальная температура - минимум температуры воздуха на высоте 2 м над землей.
  • Tmax - Максимальная температура - максимум температуры воздуха на высоте 2 м над землей.
  • R - Количество осадков - Количество выпавших осадков за период времени, мм. При наведении курсора мыши на число - период времени, за который выпало указанное количество осадков.
  • R24 - Количество осадков - Количество выпавших осадков за 24 часа, мм.
  • S - Снежный покров - Высота снежного покрова, см. При наведении курсора мыши на число - состояние снежного покрова и степень покрытия местности в баллах.